weather.gov     
National Weather Service

Regional Weather Roundup
NWS Homepage
This page is being discontinued on March 12, 2014.
The same data is available at this site. Please update your bookmarks.
Thank you, and we apologize for the inconvenience.
Please send an email to SR-SRH.Webmaster@noaa.gov with any concerns.


Current Version
Previous Version:    01  02  03  04  05  06  07  08  09  10  11  12  13  14  15  16  17  18  19  20  21  22  23  24  25  26  27  28  29  30  
   31  32  33  34  35  36  37  38  39  40  41  42  43  44  45  46  47  48  49  50  51  52  53  
[Printable]
153
ASUS43 KFSD 230110
RWRFSD

WEATHER ROUNDUP FOR SE SOUTH DAKOTA/SW MINNESOTA/NW IOWA
NATIONAL WEATHER SERVICE SIOUX FALLS SD
700 PM CST SAT NOV 22 2014

NOTE: "FAIR" INDICATES FEW OR NO CLOUDS BELOW 12,000 FEET WITH NO
SIGNIFICANT WEATHER AND OR OBSTRUCTIONS TO VISIBILITY.


SDZ038>040-050-052>070-230200-
SOUTHEAST SOUTH DAKOTA

CITY           SKY/WX    TMP DP  RH WIND       PRES   REMARKS
CHAMBERLAIN    CLOUDY    44  31  60 N7        29.43R
HURON          PTCLDY    38  34  85 S6        29.41R
MADISON        FAIR      37  37 100 S8        29.44F
MITCHELL       MOCLDY    47  35  63 S8        29.43S
SIOUX FALLS    CLOUDY    41  36  82 S17G28    29.48S
WINNER         FAIR      51  30  44 SW10      29.44R
YANKTON        CLOUDY    45  36  70 S8        29.49F
$$

MNZ071-072-080-081-089-090-097-098-230200-
SOUTHWEST MINNESOTA

CITY           SKY/WX    TMP DP  RH WIND       PRES   REMARKS
FAIRMONT       MOCLDY    37  34  87 S15       29.56F
JACKSON        PTCLDY    37  36  93 S13       29.54F
LUVERNE        PTCLDY    37  34  87 S12       29.51F FOG
MARSHALL       MOCLDY    39  34  81 S24G31    29.45F
MONTEVIDEO     MOCLDY    34  34 100 S9        29.48F FOG     WCI  26
PIPESTONE      PTCLDY    37  36  93 S18       29.47S
REDWOOD FALLS  PTCLDY    36  34  92 SE16      29.52F FOG
TRACY          MOCLDY    38  35  89 S14       29.49S
WINDOM         PTCLDY    37  36  93 S9        29.52F FOG
WORTHINGTON    CLEAR     37  34  87 S14G21    29.52F
$$

IAZ001>003-012>014-020>022-031-032-NEZ013-014-SDZ071-230200-
NORTHWEST IOWA

CITY           SKY/WX    TMP DP  RH WIND       PRES   REMARKS
CHEROKEE       PTCLDY    37  37  99 S6        29.56F FOG
DENISON        CLOUDY    52  52 100 S15G22    29.58S
ESTHERVILLE    MOCLDY    36  35  96 S16       29.55F FOG
LE MARS        PTCLDY    41  39  93 S12       29.54S
ORANGE CITY    PTCLDY    39  36  87 S8        29.53S
SHELDON        PTCLDY    36  36 100 S13       29.52F FOG
SIOUX CITY     CLEAR     39  36  89 SE12      29.54F
SPENCER        PTCLDY    38  35  89 S10       29.56F
STORM LAKE     MOCLDY    39  37  93 S13       29.57F FOG
$$

ABBREVIATIONS USED IN REMARKS
   TC - TEMPERATURE IN CELSIUS
  WCI - WIND CHILL INDEX
   HX - HEAT INDEX
  VSB - VISIBILITY





U.S. Dept. of Commerce
NOAA National Weather Service
1325 East West Highway
Silver Spring, MD 20910
E-mail: w-nws.webmaster@noaa.gov
Page last modified: May 16, 2007
NATIONAL WEATHER SERVICE: for Safety, for Work, for Fun - FOR LIFE